Location: Valdosta
(30.8330°N, 83.2790°W)
Time: 21:03:21
(UTC-05:00)

Amateur Radio Satellites - All Passes

Search period start: 23 January 2018 20:33
Search period end: 24 January 2018 20:33
Location: Valdosta, 30.8330°N, 83.2790°W

Satellite Date Start Highest point End Downlink Frequencies (MHz)
Time Altitude Azimuth
PCSat 23 Jan 20:48:05 20:50:35 13° 257° (WSW) 20:53:05 145.827
AO-85 23 Jan 20:51:06 20:56:11 68° 62° (ENE) 21:01:29 145.980
BEESAT 2 23 Jan 20:53:11 20:54:15 11° 253° (WSW) 20:55:18 435.950
STRAND 1 23 Jan 20:58:14 21:02:22 25° 290° (WNW) 21:06:31 437.568
Oscar 11 23 Jan 21:01:04 21:04:51 29° 263° (W) 21:08:40 .
TIGRISAT 23 Jan 21:12:01 21:14:24 14° 93° (E) 21:16:46 435.000
UNISAT 6 23 Jan 21:27:00 21:30:46 24° 96° (E) 21:34:28 437.425
Max Valier Satellite 23 Jan 21:54:29 21:58:08 59° 259° (W) 22:01:51 145.860
DELFI C3 23 Jan 21:56:17 21:59:52 35° 262° (W) 22:03:27 145.870
EO-88 23 Jan 22:05:23 22:09:01 69° 259° (W) 22:12:39 145.990 - 145.960
ESTCUBE 1 23 Jan 22:11:06 22:12:38 12° 67° (ENE) 22:14:10 437.505/2401.250
YUBILEINY 23 Jan 22:14:05 22:21:42 34° 86° (E) 22:29:17 435.215
PRISM 23 Jan 22:15:31 22:17:29 13° 95° (E) 22:19:26 437.425
FO-29 23 Jan 22:21:14 22:22:09 10° 295° (WNW) 22:23:05 435.910
AO-85 23 Jan 22:34:12 22:36:08 12° 253° (WSW) 22:38:06 145.980
AIST 2D 23 Jan 22:45:58 22:47:17 12° 94° (E) 22:48:36 435.315
TIGRISAT 23 Jan 22:46:45 22:51:12 43° 286° (WNW) 22:55:35 435.000
UNISAT 6 23 Jan 23:03:27 23:07:19 26° 289° (WNW) 23:11:09 437.425
NO-84 23 Jan 23:13:08 23:14:14 12° 41° (NE) 23:15:20 435.350 FM
LO-87 23 Jan 23:14:03 23:17:36 85° 259° (W) 23:21:11 145.935 - 145.965
QB50P2 23 Jan 23:18:14 23:18:48 10° 93° (E) 23:19:20 145.880/145.840
VELOX 1 23 Jan 23:32:53 23:33:47 11° 67° (ENE) 23:34:41 145.980
DUCHIFAT 1 23 Jan 23:40:57 23:42:59 13° 94° (E) 23:45:01 145.980
O/OREOS (USA 219) 23 Jan 23:43:14 23:47:37 53° 105° (ESE) 23:52:00 437.305
ESTCUBE 1 23 Jan 23:44:32 23:48:56 51° 260° (W) 23:53:20 437.505/2401.250
EO-79 23 Jan 23:45:22 23:48:39 21° 96° (E) 23:51:55 145.935-145.965
PRISM 23 Jan 23:49:04 23:52:46 34° 287° (WNW) 23:56:28 437.425
YUBILEINY 24 Jan 00:09:58 00:18:10 42° 282° (WNW) 00:26:23 435.215
AIST 2D 24 Jan 00:17:32 00:20:24 25° 286° (WNW) 00:23:16 435.315
POLYITAN 1 24 Jan 00:20:30 00:24:44 61° 101° (E) 00:28:56 437.675
NANOSAT C BR1 24 Jan 00:32:49 00:37:04 76° 101° (E) 00:41:18 145.865
SPROUT 24 Jan 00:36:10 00:40:20 59° 259° (W) 00:44:32 437.525
AO-91 24 Jan 00:43:18 00:45:22 12° 95° (E) 00:47:28 145.960
NO-84 24 Jan 00:48:47 00:51:25 31° 234° (SW) 00:54:11 435.350 FM
QB50P2 24 Jan 00:50:38 00:54:44 47° 285° (WNW) 00:58:49 145.880/145.840
Oscar 19 24 Jan 01:03:23 01:06:41 17° 95° (E) 01:09:59 437.125/150
50 SAT 24 Jan 01:03:49 01:05:17 13° 71° (ENE) 01:06:45 437.505
VELOX 1 24 Jan 01:05:26 01:09:42 52° 260° (W) 01:13:59 145.980
DX 1 24 Jan 01:11:24 01:15:03 27° 72° (ENE) 01:18:42 434.975-435.025
DUCHIFAT 1 24 Jan 01:14:48 01:18:42 36° 286° (WNW) 01:22:35 145.980
Gurwin Techsat 1B 24 Jan 01:16:16 01:19:46 18° 95° (E) 01:23:15 435.225
EO-79 24 Jan 01:20:52 01:24:16 23° 289° (WNW) 01:27:39 145.935-145.965
FALCONSAT 3 24 Jan 01:24:03 01:27:03 24° 150° (SSE) 01:30:04 435.103
O/OREOS (USA 219) 24 Jan 01:25:55 01:27:17 11° 300° (WNW) 01:28:40 437.305
MOZHAYETS 4 24 Jan 01:54:57 01:57:13 14° 68° (ENE) 01:59:30
BUGSAT 1 24 Jan 02:02:22 02:06:29 50° 285° (WNW) 02:10:33 437.445
nSIGHT-1 24 Jan 02:06:53 02:09:06 17° 37° (NE) 02:11:19 .
AO-91 24 Jan 02:17:09 02:21:49 56° 284° (WNW) 02:26:54 145.960
AO-7 24 Jan 02:24:06 02:27:33 13° 93° (E) 02:30:58 .
UKube-1 24 Jan 02:27:23 02:31:36 58° 259° (WSW) 02:35:50 .
BEESAT 24 Jan 02:32:40 02:36:11 21° 69° (ENE) 02:39:43 436.000
ISS 24 Jan 02:34:00 02:36:37 22° 38° (NE) 02:39:13 437.550
50 SAT 24 Jan 02:34:38 02:36:45 17° 263° (W) 02:38:53 437.505
Oscar 19 24 Jan 02:41:16 02:46:05 42° 288° (WNW) 02:50:53 437.125/150
DX 1 24 Jan 02:48:07 02:51:09 19° 264° (W) 02:54:13 434.975-435.025
Gurwin Techsat 1B 24 Jan 02:54:49 02:59:49 43° 287° (WNW) 03:04:47 435.225
FALCONSAT 3 24 Jan 03:02:14 03:05:55 78° 342° (NNW) 03:09:36 435.103
MOZHAYETS 4 24 Jan 03:29:29 03:33:54 45° 260° (W) 03:38:22
ITUPSAT 1 24 Jan 03:31:35 03:36:21 85° 257° (WSW) 03:41:09 437.325
CUBESAT XI-V 24 Jan 03:41:44 03:46:17 51° 75° (ENE) 03:50:49 437.345
nSIGHT-1 24 Jan 03:42:27 03:45:17 30° 231° (SW) 03:48:06 .
ITAMSAT 1 24 Jan 03:54:56 03:59:50 41° 100° (E) 04:04:43 435.822/435.867
BEESAT 24 Jan 04:09:32 04:13:42 30° 262° (W) 04:17:54 436.000
ISS 24 Jan 04:10:19 04:13:01 24° 232° (SW) 04:15:42 437.550
DOVE 4 24 Jan 04:11:43 04:14:05 14° 95° (E) 04:16:31 437.250
AO-7 24 Jan 04:12:39 04:21:04 88° 108° (ESE) 04:29:24 .
SO-50 24 Jan 04:15:27 04:19:43 49° 114° (ESE) 04:24:03 436.795
KKS-1 24 Jan 04:33:29 04:37:00 24° 71° (ENE) 04:40:31 437.445
FALCONSAT 3 24 Jan 04:41:45 04:45:13 39° 357° (N) 04:48:42 435.103
M-CUBED/EXP-1 PRIME 24 Jan 05:12:59 05:15:59 34° 104° (ESE) 05:18:59 437.505
CUBESAT XI-V 24 Jan 05:22:19 05:23:50 11° 267° (W) 05:25:21 437.345
LilacSat-2 24 Jan 05:28:23 05:28:44 10° 93° (E) 05:29:06 437.200
ITAMSAT 1 24 Jan 05:35:23 05:38:55 19° 293° (WNW) 05:42:28 435.822/435.867
DOVE 4 24 Jan 05:47:32 05:51:48 42° 285° (WNW) 05:56:17 437.250
KAITUO 1B 24 Jan 05:49:20 05:50:49 12° 94° (E) 05:52:15 145.475/437.950
NUDT-PHONESAT 24 Jan 05:53:23 05:55:00 13° 94° (E) 05:56:38 437.300
CUTE-I 24 Jan 05:54:30 05:58:28 21° 96° (E) 06:02:26 437.470
XW-2F 24 Jan 05:56:14 05:59:07 21° 96° (E) 06:02:00 145.980 - 146.000
SO-50 24 Jan 05:58:03 06:00:26 14° 309° (NW) 06:02:49 436.795
RS-15 24 Jan 05:58:46 06:07:16 22° 101° (E) 06:15:42 29.354- 29.394
AO-7 24 Jan 06:07:55 06:12:42 17° 303° (WNW) 06:17:29 .
XW-2D 24 Jan 06:08:40 06:12:09 37° 99° (E) 06:15:36 145.860 - 145.880
KKS-1 24 Jan 06:09:57 06:13:24 23° 263° (W) 06:16:53 437.445
HO-68 24 Jan 06:13:40 06:18:21 18° 95° (E) 06:23:00 435.675
STARS 24 Jan 06:14:22 06:18:37 56° 259° (W) 06:22:55 437.465
FALCONSAT 3 24 Jan 06:21:01 06:24:37 52° 13° (NNE) 06:28:12 435.103
XW-2B 24 Jan 06:26:13 06:29:57 65° 101° (ESE) 06:33:38 145.730 - 145.750
STRAND 1 24 Jan 06:29:50 06:33:52 24° 69° (ENE) 06:37:54 437.568
CUBEBUG 2 24 Jan 06:32:50 06:34:46 12° 92° (E) 06:36:42 437.445
FO-29 24 Jan 06:40:34 06:44:41 17° 68° (ENE) 06:48:32 435.910
XW-2C 24 Jan 06:56:58 07:00:31 41° 284° (WNW) 07:04:01 145.795 - 145.815
SEEDS 24 Jan 06:57:21 07:00:27 20° 96° (E) 07:03:31 437.485
LilacSat-2 24 Jan 06:59:38 07:03:05 35° 285° (WNW) 07:06:30 437.200
CUTE 1.7 + AOD 2 24 Jan 07:16:22 07:20:33 67° 101° (ESE) 07:24:41 437.475
KAITUO 1B 24 Jan 07:21:35 07:24:47 28° 286° (WNW) 07:27:56 145.475/437.950
NUDT-PHONESAT 24 Jan 07:25:42 07:28:49 26° 286° (WNW) 07:31:53 437.300
JUGNU 24 Jan 07:29:01 07:32:00 14° 163° (SSE) 07:34:59 437.505
XW-2F 24 Jan 07:30:34 07:33:00 17° 289° (WNW) 07:35:25 145.980 - 146.000
CUTE-I 24 Jan 07:33:40 07:38:31 36° 289° (WNW) 07:43:21 437.470
XW-2D 24 Jan 07:45:50 07:45:53 10° 291° (WNW) 07:45:57 145.860 - 145.880
PCSat 24 Jan 07:57:29 08:00:46 16° 104° (ESE) 08:04:03 145.827
HO-68 24 Jan 07:59:21 08:06:24 64° 288° (WNW) 08:13:27 435.675
FALCONSAT 3 24 Jan 08:00:10 08:03:40 44° 206° (SSW) 08:07:10 435.103
BEESAT 3 24 Jan 08:01:50 08:05:05 25° 111° (ESE) 08:08:22 437.485
AAUSAT CUBESAT 2 24 Jan 08:02:03 08:06:03 51° 100° (E) 08:10:02 437.432
UWE-3 24 Jan 08:04:19 08:08:59 82° 103° (ESE) 08:13:31 435.000/436.395/437.385
RS-15 24 Jan 08:06:03 08:18:22 82° 297° (WNW) 08:30:41 29.354- 29.394
CUBEBUG 2 24 Jan 08:06:58 08:11:33 49° 285° (WNW) 08:16:03 437.445
STRAND 1 24 Jan 08:08:26 08:12:50 30° 262° (W) 08:17:17 437.568
ZACube-1 24 Jan 08:19:35 08:24:02 58° 100° (E) 08:28:22 437.345
XW-2A 24 Jan 08:20:50 08:24:10 80° 99° (E) 08:27:28 145.665 - 145.685
FO-29 24 Jan 08:22:27 08:29:21 62° 258° (WSW) 08:35:27 435.910
UNISAT 6 24 Jan 08:23:04 08:23:55 10° 66° (ENE) 08:24:45 437.425
AO-73 24 Jan 08:23:59 08:28:24 57° 100° (E) 08:32:41 145.935
SEEDS 24 Jan 08:32:43 08:35:59 23° 288° (WNW) 08:39:15 437.485
YUBILEINY 24 Jan 08:35:34 08:36:48 10° 66° (ENE) 08:38:03 435.215
Oscar 11 24 Jan 08:52:55 08:57:15 76° 102° (ESE) 09:01:31 .
BEESAT 2 24 Jan 08:58:58 09:02:20 27° 111° (ESE) 09:05:45 435.950
JUGNU 24 Jan 09:15:47 09:20:25 24° 172° (S) 09:25:03 437.505
Max Valier Satellite 24 Jan 09:30:23 09:32:53 17° 95° (E) 09:35:21 145.860
DELFI C3 24 Jan 09:37:52 09:41:33 38° 99° (E) 09:45:13 145.870
PCSat 24 Jan 09:38:27 09:43:39 49° 297° (WNW) 09:48:55 145.827
TIGRISAT 24 Jan 09:39:13 09:43:37 83° 79° (ENE) 09:48:10 435.000
BEESAT 3 24 Jan 09:39:35 09:42:31 20° 305° (NW) 09:45:30 437.485
EO-88 24 Jan 09:40:22 09:42:20 14° 95° (E) 09:44:18 145.990 - 145.960
UNISAT 6 24 Jan 09:55:42 10:00:00 55° 260° (W) 10:04:28 437.425
O/OREOS (USA 219) 24 Jan 09:58:42 10:02:55 40° 68° (ENE) 10:07:09 437.305
AO-73 24 Jan 10:03:54 10:04:01 10° 294° (WNW) 10:04:09 145.935
RS-15 24 Jan 10:23:56 10:32:53 23° 320° (NW) 10:41:46 29.354- 29.394
YUBILEINY 24 Jan 10:26:13 10:34:57 76° 84° (E) 10:43:37 435.215
PRISM 24 Jan 10:32:02 10:36:04 74° 77° (ENE) 10:40:07 437.425
BEESAT 2 24 Jan 10:37:06 10:40:00 19° 305° (NW) 10:42:55 435.950
AIST 2D 24 Jan 10:45:23 10:48:41 39° 76° (ENE) 10:51:59 435.315
LO-87 24 Jan 10:48:07 10:49:09 11° 94° (E) 10:50:10 145.935 - 145.965
AO-85 24 Jan 11:00:45 11:04:37 77° 115° (ESE) 11:08:42 145.980
Max Valier Satellite 24 Jan 11:03:49 11:06:33 20° 288° (WNW) 11:09:16 145.860
JUGNU 24 Jan 11:04:02 11:08:54 28° 182° (S) 11:13:48 437.505
POLYITAN 1 24 Jan 11:08:03 11:11:19 22° 71° (ENE) 11:14:35 437.675
EO-88 24 Jan 11:12:58 11:15:53 23° 287° (WNW) 11:18:49 145.990 - 145.960
DELFI C3 24 Jan 11:14:43 11:15:52 11° 291° (WNW) 11:17:02 145.870
NANOSAT C BR1 24 Jan 11:19:37 11:23:06 26° 72° (ENE) 11:26:38 145.865
SRMSAT 24 Jan 11:31:54 11:36:12 21° 168° (SSE) 11:40:31 437.500
QB50P2 24 Jan 11:37:07 11:41:15 59° 76° (ENE) 11:45:27 145.880/145.840
O/OREOS (USA 219) 24 Jan 11:39:51 11:41:53 13° 261° (W) 11:43:55 437.305
ESTCUBE 1 24 Jan 11:42:14 11:46:35 49° 100° (E) 11:50:53 437.505/2401.250
DUCHIFAT 1 24 Jan 12:00:12 12:04:23 74° 76° (ENE) 12:08:35 145.980
EO-79 24 Jan 12:06:31 12:10:41 65° 259° (WSW) 12:14:55 145.935-145.965
Oscar 19 24 Jan 12:15:30 12:18:28 15° 66° (ENE) 12:21:25 437.125/150
LO-87 24 Jan 12:19:22 12:22:33 30° 286° (WNW) 12:25:45 145.935 - 145.965
YUBILEINY 24 Jan 12:25:43 12:30:40 17° 279° (W) 12:35:36 435.215
SPROUT 24 Jan 12:27:07 12:31:02 33° 98° (E) 12:34:54 437.525
Gurwin Techsat 1B 24 Jan 12:32:27 12:35:51 17° 67° (ENE) 12:39:14 435.225
POLYITAN 1 24 Jan 12:43:35 12:46:55 22° 264° (W) 12:50:17 437.675
BUGSAT 1 24 Jan 12:46:07 12:50:03 49° 75° (ENE) 12:54:02 437.445
JUGNU 24 Jan 12:53:09 12:57:22 21° 192° (SSW) 13:01:36 437.505
SO-50 24 Jan 12:53:30 12:55:27 12° 50° (NE) 12:57:25 436.795
NANOSAT C BR1 24 Jan 12:55:47 12:58:44 18° 264° (W) 13:01:42 145.865
VELOX 1 24 Jan 13:00:34 13:04:46 42° 100° (E) 13:08:57 145.980
AO-91 24 Jan 13:10:01 13:13:17 54° 76° (ENE) 13:16:41 145.960
AO-7 24 Jan 13:18:42 13:22:02 13° 54° (NE) 13:25:21 .
SRMSAT 24 Jan 13:19:51 13:24:50 28° 178° (S) 13:29:51 437.500
ESTCUBE 1 24 Jan 13:21:22 13:22:52 12° 293° (WNW) 13:24:22 437.505/2401.250
Oscar 19 24 Jan 13:52:16 13:57:17 50° 260° (W) 14:02:20 437.125/150
50 SAT 24 Jan 13:53:25 13:55:48 20° 98° (E) 13:58:09 437.505
SPROUT 24 Jan 14:04:02 14:06:34 15° 291° (WNW) 14:09:06 437.525
Gurwin Techsat 1B 24 Jan 14:10:17 14:15:21 46° 260° (W) 14:20:27 435.225
UKube-1 24 Jan 14:19:45 14:23:39 33° 99° (E) 14:27:33 .
NO-84 24 Jan 14:22:46 14:24:39 14° 124° (SE) 14:26:28 435.350 FM
SO-50 24 Jan 14:31:36 14:36:18 67° 245° (WSW) 14:41:03 436.795
VELOX 1 24 Jan 14:38:44 14:40:46 13° 292° (WNW) 14:42:48 145.980
DX 1 24 Jan 14:39:59 14:44:19 73° 284° (WNW) 14:48:39 434.975-435.025
AO-7 24 Jan 15:05:04 15:13:23 76° 71° (ENE) 15:21:45 .
RS-15 24 Jan 15:05:29 15:12:53 18° 35° (NE) 15:20:01 29.354- 29.394
ITAMSAT 1 24 Jan 15:07:37 15:12:18 36° 72° (ENE) 15:17:01 435.822/435.867
SRMSAT 24 Jan 15:08:44 15:13:31 25° 188° (S) 15:18:20 437.500
50 SAT 24 Jan 15:26:06 15:27:11 11° 290° (WNW) 15:28:18 437.505
MOZHAYETS 4 24 Jan 15:29:38 15:34:13 63° 101° (E) 15:38:44
ITUPSAT 1 24 Jan 15:37:40 15:42:09 38° 99° (E) 15:46:35 437.325
CUBESAT XI-V 24 Jan 15:44:35 15:47:51 19° 95° (E) 15:51:06 437.345
M-CUBED/EXP-1 PRIME 24 Jan 15:53:07 15:56:29 23° 68° (ENE) 15:59:41 437.505
UKube-1 24 Jan 15:56:46 15:59:20 16° 291° (WNW) 16:01:54 .
NO-84 24 Jan 15:58:42 16:01:38 29° 313° (NW) 16:04:24 435.350 FM
BEESAT 24 Jan 16:14:14 16:19:02 79° 284° (WNW) 16:23:49 436.000
DOVE 4 24 Jan 16:47:31 16:51:48 78° 257° (WSW) 16:55:59 437.250
ITAMSAT 1 24 Jan 16:48:04 16:51:47 20° 264° (W) 16:55:31 435.822/435.867
SRMSAT 24 Jan 16:58:53 17:02:07 15° 197° (SSW) 17:05:22 437.500
AO-7 24 Jan 17:01:28 17:06:40 18° 265° (W) 17:11:54 .
XW-2B 24 Jan 17:03:16 17:05:22 14° 70° (ENE) 17:07:27 145.730 - 145.750
CUTE-I 24 Jan 17:11:17 17:15:10 21° 68° (ENE) 17:19:02 437.470
RS-15 24 Jan 17:16:18 17:27:52 71° 60° (ENE) 17:38:49 29.354- 29.394
ITUPSAT 1 24 Jan 17:16:29 17:19:37 18° 292° (WNW) 17:22:44 437.325
CUBESAT XI-V 24 Jan 17:21:11 17:25:10 30° 288° (WNW) 17:29:08 437.345
M-CUBED/EXP-1 PRIME 24 Jan 17:27:10 17:30:40 23° 257° (WSW) 17:34:01 437.505
XW-2C 24 Jan 17:32:18 17:35:49 36° 75° (ENE) 17:39:20 145.795 - 145.815
LilacSat-2 24 Jan 17:35:23 17:39:03 44° 76° (ENE) 17:42:44 437.200
KAITUO 1B 24 Jan 17:55:04 17:58:43 49° 75° (ENE) 18:02:20 145.475/437.950
NUDT-PHONESAT 24 Jan 17:58:09 18:01:46 50° 76° (ENE) 18:05:24 437.300
BEESAT 3 24 Jan 17:59:59 18:03:38 38° 59° (ENE) 18:07:13 437.485
CUTE 1.7 + AOD 2 24 Jan 18:03:54 18:07:17 23° 72° (ENE) 18:10:40 437.475
XW-2F 24 Jan 18:04:07 18:07:54 85° 258° (WSW) 18:11:43 145.980 - 146.000
KKS-1 24 Jan 18:04:56 18:09:24 79° 283° (WNW) 18:13:51 437.445
STARS 24 Jan 18:08:56 18:13:04 38° 99° (E) 18:17:11 437.465
XW-2D 24 Jan 18:17:44 18:21:24 45° 260° (W) 18:25:05 145.860 - 145.880
HO-68 24 Jan 18:21:27 18:28:23 56° 71° (ENE) 18:35:20 435.675
PCSat 24 Jan 18:31:43 18:36:50 41° 61° (ENE) 18:41:54 145.827
XW-2B 24 Jan 18:35:56 18:39:14 27° 263° (W) 18:42:32 145.730 - 145.750
nSIGHT-1 24 Jan 18:38:38 18:41:47 84° 318° (NW) 18:44:57 .
STRAND 1 24 Jan 18:47:06 18:49:16 13° 93° (E) 18:51:26 437.568
AAUSAT CUBESAT 2 24 Jan 18:47:38 18:50:17 17° 70° (ENE) 18:52:55 437.432
XW-2A 24 Jan 18:48:52 18:49:28 10° 70° (ENE) 18:50:03 145.665 - 145.685
CUTE-I 24 Jan 18:50:00 18:54:53 38° 261° (W) 18:59:48 437.470
UWE-3 24 Jan 18:55:39 18:59:35 32° 73° (ENE) 19:03:38 435.000/436.395/437.385
BEESAT 2 24 Jan 18:58:19 19:02:07 43° 60° (ENE) 19:05:52 435.950
CUBEBUG 2 24 Jan 18:58:52 19:03:12 69° 77° (ENE) 19:07:43 437.445
ISS 24 Jan 19:09:19 19:12:31 58° 316° (NW) 19:15:44 437.550
XW-2C 24 Jan 19:09:22 19:10:03 10° 267° (W) 19:10:44 145.795 - 145.815
ZACube-1 24 Jan 19:10:04 19:13:36 23° 71° (ENE) 19:17:11 437.345
AO-73 24 Jan 19:14:11 19:17:39 23° 71° (ENE) 19:21:11 145.935
SEEDS 24 Jan 19:17:31 19:21:44 71° 260° (W) 19:25:55 437.485
RS-15 24 Jan 19:30:37 19:39:02 25° 258° (WSW) 19:47:15 29.354- 29.394
AO-85 24 Jan 19:36:55 19:40:33 19° 54° (NE) 19:44:17 145.980
FO-29 24 Jan 19:38:46 19:42:21 19° 96° (E) 19:46:05 435.910
BEESAT 3 24 Jan 19:39:37 19:40:43 11° 252° (WSW) 19:41:48 437.485
CUTE 1.7 + AOD 2 24 Jan 19:39:43 19:42:58 21° 264° (W) 19:46:14 437.475
Oscar 11 24 Jan 19:42:24 19:46:06 28° 73° (ENE) 19:49:49 .
STARS 24 Jan 19:46:35 19:49:00 15° 292° (WNW) 19:51:27 437.465
HO-68 24 Jan 20:11:07 20:16:20 21° 264° (W) 20:21:33 435.675
PCSat 24 Jan 20:16:01 20:19:51 20° 255° (WSW) 20:23:41 145.827
XW-2A 24 Jan 20:18:47 20:21:47 29° 262° (W) 20:24:48 145.665 - 145.685
DELFI C3 24 Jan 20:20:26 20:21:04 10° 69° (ENE) 20:21:41 145.870
AAUSAT CUBESAT 2 24 Jan 20:21:54 20:25:27 28° 263° (W) 20:29:00 437.432
